TimeCDT,TemperatureF,Dew PointF,Humidity,Sea Level PressureIn,VisibilityMPH,Wind Direction,Wind SpeedMPH,Gust SpeedMPH,PrecipitationIn,Events,Conditions,WindDirDegrees,DateUTC
12:53 AM,79.0,72.0,79,29.90,10.0,NE,9.2,-,N/A,,Overcast,50,2013-05-11 05:53:00
1:53 AM,78.1,72.0,81,29.88,10.0,NNE,10.4,-,N/A,,Overcast,30,2013-05-11 06:53:00
2:19 AM,78.8,71.6,78,29.95,10.0,NNE,9.2,-,N/A,,Overcast,20,2013-05-11 07:19:00
2:53 AM,75.9,73.0,91,29.95,5.0,North,10.4,-,0.06,Rain,Light Rain,360,2013-05-11 07:53:00
3:14 AM,75.2,73.4,94,29.95,5.0,North,10.4,-,0.02,Rain,Light Rain,350,2013-05-11 08:14:00
3:34 AM,75.2,73.4,94,29.93,4.0,North,12.7,-,0.13,Rain-Thunderstorm,Heavy Rain,360,2013-05-11 08:34:00
3:44 AM,75.2,73.4,94,29.91,5.0,North,13.8,-,0.16,Rain-Thunderstorm,Rain,350,2013-05-11 08:44:00
3:53 AM,75.0,73.0,94,29.92,6.0,NNW,13.8,21.9,0.16,Rain-Thunderstorm,Light Thunderstorms and Rain,340,2013-05-11 08:53:00
3:59 AM,75.2,73.4,94,29.94,7.0,NNW,9.2,-,0.00,Rain-Thunderstorm,Light Thunderstorms and Rain,340,2013-05-11 08:59:00
4:09 AM,75.2,73.4,94,29.94,4.0,North,9.2,-,0.11,Rain-Thunderstorm,Heavy Thunderstorms and Rain,360,2013-05-11 09:09:00
4:26 AM,75.2,73.4,94,29.94,6.0,North,12.7,-,0.22,Rain-Thunderstorm,Light Rain,10,2013-05-11 09:26:00
4:34 AM,75.2,73.4,94,29.93,9.0,North,11.5,-,0.22,Rain,Light Rain,10,2013-05-11 09:34:00
4:40 AM,75.2,71.6,89,29.94,10.0,North,23.0,29.9,0.22,Rain-Thunderstorm,Light Rain,350,2013-05-11 09:40:00
4:48 AM,73.4,69.8,88,29.93,10.0,North,18.4,31.1,0.22,Rain-Thunderstorm,Light Rain,360,2013-05-11 09:48:00
4:53 AM,73.0,70.0,90,29.93,10.0,NNE,21.9,28.8,0.22,Rain-Thunderstorm,Light Rain,20,2013-05-11 09:53:00
5:01 AM,73.4,69.8,88,29.94,10.0,North,20.7,28.8,0.00,Rain,Light Rain,10,2013-05-11 10:01:00
5:08 AM,73.4,69.8,88,29.95,10.0,North,15.0,27.6,0.00,,Overcast,10,2013-05-11 10:08:00
5:53 AM,72.0,68.0,87,29.96,10.0,North,11.5,-,0.01,Rain,Rain,350,2013-05-11 10:53:00
6:53 AM,71.1,68.0,90,29.94,10.0,NNE,17.3,-,0.01,Rain,Light Rain,30,2013-05-11 11:53:00
7:53 AM,72.0,66.9,84,30.00,10.0,North,4.6,-,0.00,,Clear,10,2013-05-11 12:53:00
8:14 AM,71.6,68.0,88,30.01,10.0,Variable,4.6,-,N/A,,Mostly Cloudy,0,2013-05-11 13:14:00
8:49 AM,73.4,69.8,88,30.01,10.0,Variable,3.5,-,N/A,,Scattered Clouds,0,2013-05-11 13:49:00
8:53 AM,73.9,69.1,85,30.01,10.0,North,4.6,-,N/A,,Scattered Clouds,10,2013-05-11 13:53:00
9:53 AM,75.9,68.0,76,30.02,10.0,NW,6.9,-,N/A,,Partly Cloudy,320,2013-05-11 14:53:00
10:53 AM,79.0,69.1,72,30.04,10.0,NW,10.4,-,N/A,,Partly Cloudy,310,2013-05-11 15:53:00
11:53 AM,82.0,68.0,62,30.03,10.0,NNW,11.5,-,N/A,,Partly Cloudy,340,2013-05-11 16:53:00
12:53 PM,82.9,64.9,54,30.03,10.0,North,12.7,21.9,N/A,,Mostly Cloudy,350,2013-05-11 17:53:00
1:53 PM,82.9,64.9,54,30.02,10.0,NNE,11.5,-,N/A,,Overcast,20,2013-05-11 18:53:00
2:53 PM,82.9,66.0,56,30.01,10.0,North,16.1,20.7,N/A,,Mostly Cloudy,10,2013-05-11 19:53:00
3:53 PM,84.0,64.9,53,29.98,10.0,North,11.5,18.4,N/A,,Mostly Cloudy,10,2013-05-11 20:53:00
4:53 PM,82.9,64.9,54,29.98,10.0,NE,11.5,-,N/A,,Overcast,40,2013-05-11 21:53:00
5:43 PM,82.4,66.2,58,29.98,10.0,East,8.1,-,N/A,,Clear,80,2013-05-11 22:43:00
5:53 PM,82.0,64.9,56,29.97,10.0,ENE,11.5,-,N/A,,Clear,70,2013-05-11 22:53:00
6:53 PM,81.0,61.0,50,29.98,10.0,NE,10.4,-,N/A,,Clear,50,2013-05-11 23:53:00
7:53 PM,79.0,62.1,56,29.97,10.0,ENE,12.7,-,N/A,,Clear,70,2013-05-12 00:53:00
8:53 PM,78.1,62.1,58,30.00,10.0,NNE,5.8,-,N/A,,Clear,30,2013-05-12 01:53:00
9:53 PM,75.0,66.0,73,30.03,10.0,NNE,4.6,-,0.00,,Scattered Clouds,20,2013-05-12 02:53:00
10:53 PM,75.9,63.0,64,30.05,10.0,North,8.1,-,N/A,,Partly Cloudy,360,2013-05-12 03:53:00
11:53 PM,73.0,66.0,79,30.09,10.0,WNW,4.6,-,0.00,Rain,Light Rain,300,2013-05-12 04:53:00